Weather observations for the past three days for
Cincinnati/Northern Kentucky International Airport
| Date | Time (edt) | Wind (mph) | Vis. (mi.) | Weather | Sky Cond. | Temperature (ºF) | Relative Humidity | Wind Chill (°F) | Heat Index (°F) | Pressure | Precipitation (in) | ||||||
|---|---|---|---|---|---|---|---|---|---|---|---|---|---|---|---|---|---|
| Air | Dwpt | 6 hour | altimeter (in) | sea level (mb) | 1 hr | 3 hr | 6 hr | ||||||||||
| Max. | Min. | ||||||||||||||||
| 04 | 05:52 | Calm | 10.00 | A Few Clouds | FEW110 | 75 | 72 | 90% | 74 | 29.99 | 1014.3 | ||||||
| 04 | 04:52 | Calm | 10.00 | Partly Cloudy | FEW090 SCT110 | 78.1 | 72 | 82% | 80 | 29.99 | 1014.3 | ||||||
| 04 | 03:52 | Calm | 10.00 | A Few Clouds | FEW080 FEW100 | 77 | 72 | 85% | 78 | 29.99 | 1014.2 | ||||||
| 04 | 02:52 | SW 3 | 10.00 | Fair | CLR | 79 | 72 | 79% | 82 | 30 | 1014.6 | ||||||
| 04 | 01:52 | SW 6 | 10.00 | Fair | CLR | 80.1 | 71.1 | 90 | 77 | 74% | 84 | 30.01 | 1014.8 | ||||
| 04 | 00:52 | Calm | 10.00 | Fair | CLR | 79 | 71.1 | 77% | 82 | 30.01 | 1015.0 | ||||||
| 03 | 23:52 | SW 5 | 10.00 | Fair | CLR | 81 | 71.1 | 72% | 85 | 30.01 | 1014.8 | ||||||
| 03 | 22:52 | SW 6 | 10.00 | Fair | CLR | 82.9 | 71.1 | 67% | 88 | 30.01 | 1014.8 | ||||||
| 03 | 21:52 | Calm | 10.00 | Fair | CLR | 84.9 | 71.1 | 63% | 90 | 30.02 | 1015.1 | ||||||
| 03 | 20:52 | Calm | 10.00 | Fair | CLR | 84.9 | 71.1 | 63% | 90 | 30.01 | 1014.8 | ||||||
| 03 | 19:52 | W 3 | 10.00 | A Few Clouds | FEW050 | 90 | 70 | 96.1 | 90 | 52% | 95 | 29.99 | 1014.3 | ||||
| 03 | 18:52 | SW 7 | 10.00 | A Few Clouds | FEW050 | 91.9 | 70 | 49% | 98 | 29.98 | 1014.1 | ||||||
| 03 | 17:52 | W 13 | 10.00 | A Few Clouds | FEW055 | 93.9 | 69.1 | 44% | 99 | 29.97 | 1013.6 | ||||||
| 03 | 16:52 | W 9 | 10.00 | Partly Cloudy | SCT055 | 93 | 69.1 | 46% | 98 | 29.98 | 1013.9 | ||||||
| 03 | 15:52 | W 10 | 10.00 | A Few Clouds | FEW055 | 93.9 | 68 | 43% | 98 | 30.01 | 1014.7 | ||||||
| 03 | 14:52 | W 9 | 10.00 | A Few Clouds | FEW050 | 93.9 | 69.1 | 44% | 99 | 30.02 | 1015.2 | ||||||
| 03 | 13:52 | W 7 G 17 | 10.00 | A Few Clouds | FEW055 | 93 | 70 | 93.9 | 75.9 | 47% | 99 | 30.03 | 1015.6 | ||||
| 03 | 12:52 | W 9 | 10.00 | A Few Clouds | FEW047 | 91.9 | 71.1 | 51% | 99 | 30.05 | 1016.2 | ||||||
| 03 | 11:52 | W 12 | 10.00 | Fair | CLR | 91 | 71.1 | 52% | 98 | 30.06 | 1016.5 | ||||||
| 03 | 10:52 | W 8 | 10.00 | Fair | CLR | 89.1 | 70 | 53% | 94 | 30.05 | 1016.4 | ||||||
| 03 | 09:52 | SW 6 | 10.00 | Fair | CLR | 84.9 | 71.1 | 63% | 90 | 30.06 | 1016.6 | ||||||
| 03 | 08:52 | SW 5 | 10.00 | Fair | CLR | 81 | 71.1 | 72% | 85 | 30.07 | 1017.0 | ||||||
| 03 | 07:52 | SW 3 | 10.00 | Fair | CLR | 75.9 | 70 | 79 | 73.9 | 82% | 77 | 30.06 | 1016.8 | ||||
| 03 | 06:52 | SW 3 | 10.00 | Fair | CLR | 75.9 | 70 | 82% | 77 | 30.05 | 1016.3 | ||||||
| 03 | 05:52 | SW 6 | 10.00 | Fair | CLR | 75 | 70 | 84% | 75 | 30.04 | 1016.1 | ||||||
| 03 | 04:52 | SW 5 | 10.00 | Fair | CLR | 75.9 | 70 | 82% | 77 | 30.04 | 1016.0 | ||||||
| 03 | 03:52 | SW 5 | 10.00 | Fair | CLR | 78.1 | 71.1 | 79% | 80 | 30.04 | 1015.8 | ||||||
| 03 | 02:52 | SW 5 | 10.00 | Fair | CLR | 78.1 | 71.1 | 79% | 80 | 30.03 | 1015.6 | ||||||
| 03 | 01:52 | SW 6 | 10.00 | Fair | CLR | 79 | 71.1 | 88 | 78.1 | 77% | 82 | 30.03 | 1015.5 | ||||
| 03 | 00:52 | SW 6 | 10.00 | Fair | CLR | 79 | 71.1 | 77% | 82 | 30.03 | 1015.5 | ||||||
| 02 | 23:52 | S 7 | 10.00 | Fair | CLR | 80.1 | 71.1 | 74% | 84 | 30.03 | 1015.5 | ||||||
| 02 | 22:52 | S 6 | 10.00 | Fair | CLR | 81 | 71.1 | 72% | 85 | 30.03 | 1015.8 | ||||||
| 02 | 21:52 | S 6 | 10.00 | Fair | CLR | 82.9 | 71.1 | 67% | 88 | 30.04 | 1015.9 | ||||||
| 02 | 20:52 | S 5 | 10.00 | Fair | CLR | 84 | 71.1 | 65% | 89 | 30.02 | 1015.3 | ||||||
| 02 | 19:52 | SW 8 | 10.00 | A Few Clouds | FEW055 | 87.1 | 70 | 95 | 87.1 | 57% | 92 | 30.02 | 1015.3 | ||||
| 02 | 18:52 | SW 9 | 10.00 | A Few Clouds | FEW050 | 91 | 70 | 50% | 97 | 30.03 | 1015.5 | ||||||
| 02 | 17:52 | SW 12 | 10.00 | A Few Clouds | FEW055 | 93 | 69.1 | 46% | 98 | 30.03 | 1015.6 | ||||||
| 02 | 16:52 | SW 9 | 10.00 | Partly Cloudy | SCT060 | 93.9 | 69.1 | 44% | 99 | 30.04 | 1015.8 | ||||||
| 02 | 15:52 | Vrbl 6 | 10.00 | Partly Cloudy | SCT055 | 93.9 | 69.1 | 44% | 99 | 30.05 | 1016.2 | ||||||
| 02 | 14:52 | W 14 | 10.00 | Partly Cloudy | SCT050 | 93.9 | 69.1 | 44% | 99 | 30.06 | 1016.8 | ||||||
| 02 | 13:52 | W 8 G 18 | 10.00 | Partly Cloudy | SCT050 | 93 | 70 | 93.9 | 73.9 | 47% | 99 | 30.08 | 1017.3 | ||||
| 02 | 12:52 | W 12 G 17 | 10.00 | A Few Clouds | FEW045 | 91.9 | 71.1 | 51% | 99 | 30.09 | 1017.7 | ||||||
| 02 | 11:52 | SW 9 | 10.00 | Fair | CLR | 90 | 72 | 56% | 97 | 30.1 | 1018.2 | ||||||
| 02 | 10:52 | W 7 | 10.00 | Fair | CLR | 87.1 | 71.1 | 59% | 93 | 30.11 | 1018.2 | ||||||
| 02 | 09:52 | W 8 | 10.00 | Fair | CLR | 84 | 71.1 | 65% | 89 | 30.11 | 1018.2 | ||||||
| 02 | 08:52 | SW 5 | 10.00 | Fair | CLR | 80.1 | 71.1 | 74% | 84 | 30.1 | 1018.1 | ||||||
| 02 | 07:52 | SW 3 | 10.00 | A Few Clouds | FEW100 | 73.9 | 69.1 | 75.9 | 73 | 85% | 30.09 | 1017.7 | |||||
| 02 | 06:52 | Calm | 10.00 | Fair | CLR | 73 | 69.1 | 87% | 30.08 | 1017.3 | |||||||
| 02 | 05:52 | SW 3 | 10.00 | Fair | CLR | 75 | 69.1 | 82% | 75 | 30.07 | 1017.1 | ||||||
| 02 | 04:52 | SW 3 | 10.00 | Fair | CLR | 75 | 69.1 | 82% | 75 | 30.07 | 1016.9 | ||||||
| 02 | 03:52 | SW 5 | 10.00 | Fair | CLR | 75 | 70 | 84% | 75 | 30.05 | 1016.4 | ||||||
| 02 | 02:52 | SW 5 | 10.00 | Fair | CLR | 75.9 | 70 | 82% | 77 | 30.05 | 1016.4 | ||||||
| 02 | 01:52 | SW 5 | 10.00 | Fair | CLR | 75.9 | 70 | 82% | 77 | 30.06 | 1016.5 | ||||||
| 02 | 00:52 | SW 6 | 10.00 | Fair | CLR | 77 | 70 | 79% | 79 | 30.06 | 1016.5 | ||||||
| 01 | 23:52 | S 6 | 10.00 | Fair | CLR | 80.1 | 70 | 71% | 83 | 30.06 | 1016.6 | ||||||
| 01 | 22:52 | S 7 | 10.00 | Fair | CLR | 81 | 70 | 69% | 84 | 30.06 | 1016.5 | ||||||
| 01 | 21:52 | S 6 | 10.00 | Fair | CLR | 82 | 71.1 | 69% | 86 | 30.06 | 1016.6 | ||||||
| 01 | 19:52 | SW 5 | 10.00 | A Few Clouds | FEW050 | 86 | 70 | 93.9 | 86 | 59% | 91 | 30.05 | 1016.3 | ||||
| 01 | 18:52 | SW 9 | 10.00 | A Few Clouds | FEW050 | 90 | 70 | 52% | 95 | 30.05 | 1016.4 | ||||||
| 01 | 17:52 | SW 7 | 10.00 | A Few Clouds | FEW050 | 91.9 | 70 | 49% | 98 | 30.04 | 1016.1 | ||||||
| 01 | 16:52 | SW 8 | 10.00 | A Few Clouds | FEW050 | 93 | 69.1 | 46% | 98 | 30.05 | 1016.3 | ||||||
| 01 | 15:52 | SW 7 G 17 | 10.00 | A Few Clouds | FEW050 | 93 | 70 | 47% | 99 | 30.06 | 1016.6 | ||||||
| 01 | 14:52 | W 12 | 10.00 | A Few Clouds | FEW050 FEW250 | 93 | 69.1 | 46% | 98 | 30.08 | 1017.3 | ||||||
| 01 | 13:52 | W 10 G 21 | 10.00 | Partly Cloudy | FEW047 SCT300 | 91.9 | 70 | 91.9 | 72 | 49% | 98 | 30.09 | 1017.7 | ||||
| 01 | 11:52 | Calm | 10.00 | Mostly Cloudy | BKN300 | 88 | 71.1 | 57% | 94 | 30.11 | 1018.3 | ||||||
| 01 | 10:52 | W 9 | 10.00 | Mostly Cloudy | BKN300 | 84.9 | 71.1 | 63% | 90 | 30.11 | 1018.5 | ||||||
| 01 | 09:52 | W 8 | 10.00 | Partly Cloudy | SCT300 | 81 | 70 | 69% | 84 | 30.12 | 1018.7 | ||||||
| 01 | 08:52 | SW 6 | 10.00 | A Few Clouds | FEW300 | 78.1 | 70 | 76% | 80 | 30.12 | 1018.8 | ||||||
| 01 | 07:52 | S 5 | 10.00 | A Few Clouds | FEW140 FEW300 | 72 | 69.1 | 75.9 | 71.1 | 91% | 30.11 | 1018.5 | |||||
| 01 | 06:52 | SW 6 | 10.00 | A Few Clouds | FEW120 | 72 | 68 | 87% | 30.09 | 1017.7 | |||||||
| Date | Time (edt) | Wind (mph) | Vis. (mi.) | Weather | Sky Cond. | Air | Dwpt | Max. | Min. | Relative Humidity | Wind Chill (°F) | Heat Index (°F) | altimeter (in) | sea level (mb) | 1 hr | 3 hr | 6 hr |
| 6 hour | |||||||||||||||||
| Temperature (ºF) | Pressure | Precipitation (in) | |||||||||||||||